This is the latest recevied weather packets stored in our database for station/object KM4RT-13. If no packets are shown the sender has not sent any weather packets the latest 10 day(s).
| Time | Temp. | Humidity | Pressure | Rain* | Wind** | Luminosity | Snow |
|---|---|---|---|---|---|---|---|
| 1777822680 | 16.67° C | 52% | 1019.3 hPa | 0 mm | - | 660 W/m² | - |
| 1777822378 | 16.67° C | 50% | 1019.4 hPa | 0 mm | - | 650 W/m² | - |
| 1777822075 | 16.67° C | 50% | 1019.5 hPa | 0 mm | - | 638 W/m² | - |
| 1777821774 | 16.67° C | 51% | 1019.5 hPa | 0 mm | - | 628 W/m² | - |
| 1777821470 | 16.11° C | 52% | 1019.5 hPa | 0 mm | - | 616 W/m² | - |
| 1777821168 | 16.67° C | 52% | 1019.5 hPa | 0 mm | - | 601 W/m² | - |
| 1777820864 | 16.11° C | 50% | 1019.8 hPa | 0 mm | - | 590 W/m² | - |
| 1777820560 | 16.11° C | 53% | 1019.6 hPa | 0 mm | - | 577 W/m² | - |
| 1777820257 | 16.11° C | 51% | 1019.6 hPa | 0 mm | - | 563 W/m² | - |
| 1777819955 | 15.56° C | 53% | 1019.4 hPa | 0 mm | - | 551 W/m² | - |
| 1777819652 | 15.56° C | 55% | 1019.6 hPa | 0 mm | - | 537 W/m² | - |
| 1777819350 | 15.56° C | 57% | 1019.5 hPa | 0 mm | - | 523 W/m² | - |
| 1777819046 | 15° C | 56% | 1019.3 hPa | 0 mm | - | 508 W/m² | - |
| 1777818744 | 15° C | 59% | 1019.4 hPa | 0 mm | - | 494 W/m² | - |
| 1777818440 | 14.44° C | 60% | 1019.6 hPa | 0 mm | - | 479 W/m² | - |
| 1777818137 | 14.44° C | 60% | 1019.5 hPa | 0 mm | - | 463 W/m² | - |
| 1777817834 | 13.89° C | 62% | 1019.9 hPa | 0 mm | - | 448 W/m² | - |
| 1777817531 | 13.89° C | 62% | 1019.6 hPa | 0 mm | - | 433 W/m² | - |
| 1777817227 | 13.89° C | 62% | 1019.8 hPa | 0 mm | - | 416 W/m² | - |
| 1777816925 | 13.89° C | 63% | 1019.6 hPa | 0 mm | - | 400 W/m² | - |
| 1777816621 | 13.89° C | 64% | 1019.4 hPa | 0 mm | - | 211 W/m² | - |
| 1777816318 | 13.33° C | 68% | 1019.5 hPa | 0 mm | - | 348 W/m² | - |
| 1777816015 | 12.78° C | 67% | 1019.5 hPa | 0 mm | - | 353 W/m² | - |
| 1777815713 | 12.78° C | 68% | 1019.5 hPa | 0 mm | - | 338 W/m² | - |
| 1777815410 | 12.78° C | 68% | 1019.8 hPa | 0 mm | - | 252 W/m² | - |
* Rain latest hour (hover to see other rain measurements)
** Current wind speed in m/s (hover to see current wind gust speed)